Morrisville, VT

5:00 PM EST on November 16, 2019 (GMT -0500)
Morrisville Stowe State

Weather History for KMVL - September, 2019

Change the Weather History Date:

Friday, September 20, 2019

  Actual Average Record
Temperature  
Mean Temperature 56 °F 56 °F  
Max Temperature 75 °F 68 °F 82 °F (2000)
Min Temperature 37 °F 44 °F 33 °F (2004)
Degree Days  
Heating Degree Days 8 9  
Month to date heating degree days 155 123  
Since 1 July heating degree days 220 218  
Cooling Degree Days 0 0  
Month to date cooling degree days 4 13  
Year to date cooling degree days 247 260  
Growing Degree Days 6 (Base 50)    
Moisture  
Dew Point 45 °F    
Average Humidity 83    
Maximum Humidity 100    
Minimum Humidity 41    
Precipitation  
Precipitation 0.00 in 0.13 in 0.38 in (1948)
Month to date precipitation 2.02 2.16  
Year to date precipitation 29.25 25.92  
Sea Level Pressure  
Sea Level Pressure 30.22 in    
Wind  
Wind Speed 1 mph ()    
Max Wind Speed 12 mph    
Max Gust Speed 15 mph    
Visibility 8.7 miles    
Events      
T = Trace of Precipitation, MM = Missing Value Source: Averaged Metar Reports

Daily Weather History Graph

Daily Weather History Graph

Search for Another Location

Airport or City:

Astronomy

Sep. 20, 2019 Rise Set
Actual Time 6:34 AM EDT 6:52 PM EDT
Civil Twilight 6:05 AM EDT 7:21 PM EDT
Nautical Twilight 5:31 AM EDT 7:55 PM EDT
Astronomical Twilight 4:56 AM EDT 8:30 PM EDT
Moon 10:25 PM EDT (9/20) 12:50 PM EDT (9/20)
Length of Visible Light 13h 15m
Length of Day
12h 17m
Waning Gibbous, 65% of the Moon is Illuminated
Sep 20
Waning Gibbous
Sep 21
Last Quarter
Sep 28
New
Oct 5
First Quarter
Oct 13
Full

Hourly Weather History & Observations

Time (EDT) Temp. Dew Point Humidity Pressure Visibility Wind Dir Wind Speed Gust Speed Precip Events Conditions
12:54 AM 42.1 °F 39.9 °F 92% 30.27 in 10.0 mi Calm Calm - N/A   Clear
1:54 AM 39.9 °F 39.0 °F 97% 30.26 in 10.0 mi Calm Calm - N/A   Clear
2:36 AM 39.9 °F 39.0 °F 97% 30.25 in 10.0 mi Calm Calm - N/A   Partly Cloudy
2:54 AM 39.9 °F 39.0 °F 97% 30.26 in 10.0 mi Calm Calm - N/A   Partly Cloudy
3:54 AM 39.9 °F 37.9 °F 93% 30.25 in 10.0 mi Calm Calm - N/A   Clear
4:16 AM 39.0 °F 37.9 °F 96% 30.24 in 10.0 mi Calm Calm - N/A   Scattered Clouds
4:26 AM 39.9 °F 37.9 °F 93% 30.24 in 10.0 mi Calm Calm - N/A   Mostly Cloudy
4:46 AM 39.9 °F 37.9 °F 93% 30.24 in 10.0 mi Calm Calm - N/A   Scattered Clouds
4:54 AM 39.0 °F 37.9 °F 96% 30.25 in 10.0 mi Calm Calm - N/A   Partly Cloudy
5:54 AM 37.9 °F 37.0 °F 97% 30.26 in 10.0 mi Calm Calm - N/A   Clear
6:31 AM 37.9 °F 37.0 °F 97% 30.25 in 10.0 mi Calm Calm - N/A   Scattered Clouds
6:54 AM 39.9 °F 37.9 °F 93% 30.27 in 10.0 mi Calm Calm - N/A   Mostly Cloudy
7:34 AM 41.0 °F 39.9 °F 96% 30.26 in 1.2 mi Calm Calm - N/A   Overcast
7:36 AM 41.0 °F 39.9 °F 96% 30.26 in 0.8 mi Calm Calm - N/A   Overcast
7:54 AM 42.1 °F 41.0 °F 96% 30.28 in 0.8 mi Calm Calm - N/A   Mist
7:56 AM 42.1 °F 42.1 °F 100% 30.26 in 1.2 mi Calm Calm - N/A   Overcast
8:08 AM 43.0 °F 42.1 °F 97% 30.26 in 3.0 mi Calm Calm - N/A   Overcast
8:54 AM 48.9 °F 45.0 °F 86% 30.28 in 10.0 mi Calm Calm - N/A   Clear
9:54 AM 55.9 °F 48.9 °F 77% 30.26 in 10.0 mi Calm Calm - N/A   Clear
10:54 AM 64.0 °F 51.1 °F 63% 30.24 in 10.0 mi Calm Calm - N/A   Clear
11:54 AM 69.1 °F 51.1 °F 53% 30.21 in 10.0 mi ESE 3.5 mph - N/A   Clear
12:54 PM 71.1 °F 51.1 °F 49% 30.19 in 10.0 mi Calm Calm - N/A   Clear
1:54 PM 72.0 °F 51.1 °F 48% 30.17 in 10.0 mi Calm Calm - N/A   Clear
2:54 PM 75.0 °F 51.1 °F 43% 30.15 in 10.0 mi Calm Calm - N/A   Clear
3:54 PM 75.0 °F 50.0 °F 41% 30.15 in 10.0 mi NNE 11.5 mph - N/A   Clear
4:54 PM 75.0 °F 50.0 °F 41% 30.14 in 10.0 mi NNW 5.8 mph - N/A   Clear
5:54 PM 71.1 °F 54.0 °F 55% 30.15 in 10.0 mi Calm Calm - N/A   Clear
6:54 PM 59.0 °F 55.0 °F 87% 30.16 in 10.0 mi South 3.5 mph - N/A   Clear
7:54 PM 55.0 °F 53.1 °F 93% 30.18 in 10.0 mi Calm Calm - N/A   Clear
8:54 PM 54.0 °F 52.0 °F 93% 30.18 in 10.0 mi South 3.5 mph - N/A   Clear
9:54 PM 53.1 °F 51.1 °F 93% 30.19 in 10.0 mi SSW 3.5 mph - N/A   Clear
10:54 PM 51.1 °F 50.0 °F 96% 30.19 in 10.0 mi South 3.5 mph - N/A   Clear
11:54 PM 50.0 °F 48.0 °F 93% 30.19 in 10.0 mi Calm Calm - N/A   Clear